Weather History for K2WX - January, 2014

Change the Weather History Date:

Friday, January 3, 2014

  Actual Average Record
Temperature  
Mean Temperature 31 °F 20 °F  
Max Temperature 45 °F 31 °F 57 °F (2003)
Min Temperature 17 °F 10 °F -13 °F (1999)
Degree Days  
Heating Degree Days 34 45  
Month to date heating degree days 129 135  
Since 1 July heating degree days 3465 3395  
Cooling Degree Days 0 0  
Month to date cooling degree days 0 0  
Year to date cooling degree days 0 0  
Moisture  
Dew Point 24 °F    
Average Humidity 69    
Maximum Humidity 84    
Minimum Humidity 53    
Precipitation  
Precipitation 0.00 in 0.01 in 0.01 in (2009)
Month to date precipitation 0.00 0.03  
Year to date precipitation 0.00 0.03  
Sea Level Pressure  
Sea Level Pressure 29.53 in    
Wind  
Wind Speed 24 mph (West)    
Max Wind Speed 54 mph    
Max Gust Speed 63 mph    
T = Trace of Precipitation, MM = Missing Value Source: NWS Daily Summary

Daily Weather History Graph

Daily Weather History Graph

Search for Another Location

Airport or City:

Trip Planner

Search our weather history database for the weather conditions in past years. The results will help you decide how hot, cold, wet, or windy it might be!

Date:

Astronomy

Jan. 03, 2014 Rise Set
Actual Time 7:34 AM MST 4:23 PM MST
Civil Twilight 7:00 AM MST 4:57 PM MST
Nautical Twilight 6:23 AM MST 5:34 PM MST
Astronomical Twilight 5:47 AM MST 6:10 PM MST
Moon 8:53 AM MST (1/3) 7:45 PM MST (1/3)
Length of Visible Light 9h 56m
Length of Day
8h 48m
Waxing Crescent, 8% of the Moon is Illuminated
Jan 3
Waxing Crescent
Jan 7
First Quarter
Jan 15
Full
Jan 23
Last Quarter
Jan 30
New

Hourly Weather History & Observations

Time (MST) Temp. Windchill Dew Point Humidity Pressure Visibility Wind Dir Wind Speed Gust Speed Precip Events Conditions
12:56 AM 30.0 °F 20.5 °F 21.0 °F 69% 29.71 in - WSW 11.5 mph - N/A   Unknown
1:56 AM 34.0 °F 22.7 °F 25.0 °F 70% 29.67 in - WSW 19.6 mph - N/A   Unknown
2:56 AM 32.0 °F 20.5 °F 23.0 °F 69% 29.65 in - WSW 18.4 mph - N/A   Unknown
3:56 AM 32.0 °F 20.1 °F 23.0 °F 69% 29.61 in - WSW 19.6 mph - N/A   Unknown
4:56 AM 34.0 °F 22.7 °F 23.0 °F 64% 29.56 in - West 19.6 mph - N/A   Unknown
5:56 AM 35.1 °F 26.4 °F 25.0 °F 67% 29.52 in - WSW 12.7 mph - N/A   Unknown
6:56 AM 35.1 °F 26.9 °F 26.1 °F 70% 29.49 in - West 11.5 mph - N/A   Unknown
7:56 AM 37.0 °F 27.0 °F 26.1 °F 65% 29.46 in - West 18.4 mph - N/A   Unknown
8:56 AM 37.9 °F 27.9 °F 27.0 °F 65% 29.45 in - WSW 19.6 mph - N/A   Unknown
9:56 AM 39.0 °F 30.3 °F 28.0 °F 65% 29.44 in - WSW 16.1 mph - N/A   Unknown
10:56 AM 39.0 °F 31.8 °F 28.9 °F 67% 29.38 in - WSW 11.5 mph - N/A   Unknown
11:56 AM 39.0 °F 34.0 °F 28.9 °F 67% 29.34 in - West 6.9 mph - N/A   Unknown
12:56 PM 45.0 °F 34.3 °F 28.0 °F 52% 29.34 in - WNW 36.8 mph 46.0 mph N/A   Unknown
1:56 PM 41.0 °F 32.8 °F 30.0 °F 65% 29.34 in - West 16.1 mph - N/A   Unknown
2:56 PM 41.0 °F 31.4 °F 28.9 °F 62% 29.37 in - WNW 21.9 mph - N/A   Unknown
3:56 PM 39.0 °F 28.3 °F 28.0 °F 65% 29.41 in - WNW 24.2 mph - N/A   Unknown
4:56 PM 37.9 °F 26.6 °F 27.0 °F 65% 29.43 in - West 25.3 mph 31.1 mph N/A   Unknown
5:56 PM 36.0 °F 21.1 °F 25.0 °F 64% 29.46 in - WNW 41.4 mph 59.8 mph N/A   Unknown
6:56 PM 33.1 °F 16.0 °F 26.1 °F 75% 29.47 in - NW 49.5 mph 63.3 mph N/A   Unknown
7:56 PM 24.1 °F 5.2 °F 19.0 °F 81% 29.60 in - NNW 38.0 mph 55.2 mph N/A   Unknown
8:56 PM 21.9 °F 1.7 °F 18.0 °F 85% 29.70 in - NW 40.3 mph 52.9 mph N/A   Unknown
9:56 PM 21.0 °F 0.0 °F 16.0 °F 81% 29.73 in - NW 42.6 mph 54.1 mph N/A   Unknown
10:56 PM 19.9 °F 0.7 °F 15.1 °F 81% 29.81 in - NW 32.2 mph 44.9 mph N/A   Unknown
11:56 PM 17.1 °F -3.2 °F 10.9 °F 77% 29.86 in - NW 32.2 mph 39.1 mph N/A   Unknown